[[[{"header":{"parameterUnit":"kt","parameterCategory":2,"dx":1,"dy":1,"la1":30.253999710083008,"la2":30.299108505249023,"lo1":-89.0895004272461,"lo2":-89.04439544677734,"nx":28,"ny":28,"refTime":"2022-10-04T21:00:00:Z","depth":0,"parameterNumber":1,"parameterNumberName":"U-component_of_WINDS"},"data":[-2.2194,-2.22,-2.2157,-2.2145,-2.2105,-2.209,-2.2072,-2.2044,-2.2012,-2.1992,-2.1974,-2.1935,-2.1889,-2.1859,-2.184,-2.1824,-2.1819,-2.185,-2.1826,-2.1723,-2.1706,-2.169,-2.1685,-2.1849,-2.1849,-2.194,-2.1941,-2.1942,-2.2115,-2.2075,-2.2056,-2.201,-2.1994,-2.1937,-2.1897,-2.1889,-2.1879,-2.184,-2.182,-2.1801,-2.1782,-2.1725,-2.1701,-2.1706,-2.1681,-2.1702,-2.1703,-2.1698,-2.1584,-2.1579,-2.1723,-2.1723,-2.1723,-2.1723,-2.1723,-2.1722,-2.1961,-2.1967,-2.1914,-2.1894,-2.186,-2.183,-2.1829,-2.178,-2.1764,-2.1731,-2.1687,-2.1677,-2.1633,-2.1586,-2.1562,-2.1554,-2.1524,-2.1537,-2.1541,-2.1546,-2.1556,-2.1429,-2.1548,-2.1548,-2.1547,-2.1547,-2.1546,0,-2.1837,-2.1801,-2.1781,-2.1749,-2.1732,-2.1704,-2.1672,-2.1671,-2.1586,-2.1577,-2.1561,-2.1545,-2.1516,-2.1499,-2.1469,-2.1441,-2.1389,-2.1379,-2.1388,-2.141,-2.1432,-2.1422,-2.124,-2.1377,-2.1376,-2.1374,-2.1374,-2.1373,-2.1681,-2.1693,-2.1619,-2.1611,-2.1583,-2.1572,-2.1558,-2.1481,-2.147,-2.1422,-2.1433,-2.1414,-2.1395,-2.138,-2.1329,-2.1309,-2.1285,-2.1341,-2.1282,-2.13,-2.1287,-2.1288,-2.1289,-2.1356,-2.1358,-2.136,-2.1361,0,-2.1596,-2.1529,-2.1536,-2.1463,-2.1445,-2.1463,-2.1401,-2.1406,-2.136,-2.136,-2.1356,-2.1286,-2.1274,-2.1213,-2.1189,-2.1158,-2.119,-2.1165,-2.1203,-2.1195,-2.1241,-2.1238,-2.1397,-2.1414,-2.1241,-2.1243,-2.1244,0,-2.1438,-2.1459,-2.1357,-2.1365,-2.1384,-2.1307,-2.133,-2.1293,-2.1254,-2.1254,-2.1181,-2.1183,-2.1105,-2.1099,-2.1054,-2.1068,-2.1064,-2.1042,-2.1031,-2.105,-2.1053,-2.1049,-2.1042,-2.1002,-2.1002,-2.1001,-2.1,0,-2.1316,-2.1287,-2.1298,-2.1281,-2.1208,-2.1216,-2.1187,-2.1143,-2.1132,-2.1107,-2.1099,-2.1077,-2.1066,-2.1051,-2.0994,-2.0956,-2.101,-2.0947,-2.0988,-2.099,-2.1008,-2.1008,-2.1159,-2.0999,-2.0999,-2.0999,-2.0999,0,-2.1181,-2.1153,-2.118,-2.1117,-2.1113,-2.1122,-2.1093,-2.1087,-2.1047,-2.1018,-2.0999,-2.0946,-2.0953,-2.0894,-2.0903,-2.087,-2.0864,-2.0843,-2.0845,-2.0846,-2.0783,-2.0879,-2.1027,-2.1041,-2.0841,-2.0839,-2.0838,0,-2.1059,-2.1069,-2.1003,-2.1032,-2.1028,-2.0945,-2.0954,-2.0922,-2.0883,-2.0876,-2.0835,-2.083,-2.0773,-2.0764,-2.0776,-2.0736,-2.0779,-2.0728,-2.0725,-2.0725,-2.0738,-2.0872,-2.0911,-2.1,-2.082,-2.0822,-2.0824,0,-2.0958,-2.0869,-2.0879,-2.0856,-2.08,-2.0798,-2.0808,-2.0784,-2.0783,-2.0756,-2.0764,-2.0756,-2.0712,-2.0699,-2.0655,-2.0671,-2.0747,-2.0624,-2.0622,-2.065,-2.0807,-2.0842,-2.0858,-2.0714,-2.0716,-2.0718,-2.081,0,-2.0769,-2.0766,-2.079,-2.0746,-2.0734,-2.075,-2.0683,-2.068,-2.0636,-2.0597,-2.0608,-2.0571,-2.0552,-2.0553,-2.0514,-2.057,-2.0552,-2.0508,-2.045,-2.0538,-2.0567,-2.0579,-2.0412,-2.041,-2.0408,-2.0406,0,0,-2.0671,-2.0666,-2.0596,-2.0603,-2.0589,-2.0505,-2.0528,-2.0506,-2.0465,-2.0459,-2.0424,-2.0409,-2.0382,-2.0404,-2.0426,-2.0419,-2.0424,-2.0398,-2.0496,-2.0507,-2.0516,-2.0548,-2.0561,-2.0403,-2.0403,-2.0402,-2.0401,0,-2.0589,-2.0555,-2.0577,-2.055,-2.0507,-2.0463,-2.0469,-2.0414,-2.039,-2.0402,-2.0337,-2.0337,-2.033,-2.0308,-2.0297,-2.0391,-2.0346,-2.039,-2.0462,-2.0481,-2.0493,-2.0504,-2.0539,-2.0551,-2.0397,-2.0398,-2.0398,0,-2.0478,-2.0435,-2.0439,-2.0403,-2.0376,-2.0376,-2.0296,-2.0301,-2.0301,-2.0217,-2.0231,-2.0202,-2.017,-2.02,-2.0211,-2.0182,-2.0277,-2.0237,-2.0247,-2.0248,-2.0264,-2.0279,-2.0293,-2.0115,-2.0114,-2.0113,0,0,-2.0417,-2.0415,-2.0348,-2.0381,-2.0368,-2.0305,-2.03,-2.0256,-2.0226,-2.0215,-2.0178,-2.0153,-2.0147,-2.0146,-2.0138,-2.018,-2.0169,-2.0205,-2.0218,-2.0229,-2.0237,-2.0256,-2.0271,-2.011,-2.011,-2.011,0,0,-2.039,-2.0312,-2.0273,-2.0302,-2.0273,-2.0213,-2.0237,-2.0189,-2.0175,-2.0167,-2.0099,-2.009,-2.0117,-2.0094,-2.0063,-2.0117,-2.0061,-2.0067,-2.0132,-2.0148,-2.0161,-2.0168,-1.9981,0,0,0,0,0,-2.0273,-2.032,-2.0286,-2.0281,-2.0239,-2.0232,-2.0226,-2.0169,-2.0128,-2.0147,-2.0109,-2.006,-2.0062,-2.0033,-2.0031,-2.0068,-2.0074,-2.0081,-2.0087,-2.018,-2.0198,-2.0212,0,0,0,0,0,0,-2.027,-2.0265,-2.0284,-2.0227,-2.0217,-2.0229,-2.0148,-2.0133,-2.0124,-2.0114,-2.0069,-2.0059,-2.0013,-2.003,-2.0029,-2.0066,-1.9981,-2.0077,-2.0082,-2.0087,-2.0186,-2.02,-2.0213,0,0,0,0,0,-2.0268,-2.0263,-2.0211,-2.0226,-2.0217,-2.0151,-2.0146,-2.0133,-2.0125,-2.0067,-2.0055,-2.0083,-2.0015,-2.0011,-2.0029,-2.0067,-1.9981,-1.9981,-2.008,-2.0084,-2.0088,-2.0193,0,0,0,0,0,0,-2.0266,-2.0253,-2.0208,-2.0203,-2.0203,-2.015,-2.0139,-2.0133,-2.0078,-2.0067,-2.0078,-2.0071,-2.0017,-2.0014,-2.0011,-2.0071,-1.9981,-1.9981,-1.9981,-2.0083,-2.0087,-2.009,0,0,0,0,0,0,-2.0255,-2.025,-2.0206,-2.0181,-2.0173,-2.0148,-2.0139,-2.0148,-2.0079,-2.0091,-2.0083,-2.0075,-2.0023,-2.0016,-2.0014,-2.003,-1.9981,-1.9981,-1.9981,-1.9981,-2.0086,-2.0089,0,0,0,0,0,0,-2.0252,-2.0247,-2.0181,-2.0175,-2.0168,-2.0112,-2.0156,-2.0117,-2.0053,-2.0095,-2.0046,-2.0043,-2.0028,-2.0024,-2.0016,-2.0034,-2.0031,-1.9981,-1.9981,-1.9981,-1.9981,0,0,0,0,0,0,0,-2.0249,-2.0294,-2.0235,-2.0171,-2.0165,-2.016,-2.0159,-2.0157,-2.0052,-2.0049,-2.0047,-2.0044,-1.9981,-1.9981,-1.9981,-2.0037,0,0,-1.9981,-1.9981,0,0,0,0,0,0,0,0,-2.0294,-2.0294,-2.0235,-2.0234,-2.0233,-2.016,-2.0159,-2.0158,-2.0052,-2.0049,-2.0047,-2.0045,-1.9981,-1.9981,-1.9981,0,0,0,0,0,0,0,0,0,0,0,0,0,0,0,-2.0235,-2.0234,0,-2.016,-2.0159,-2.0158,-2.0051,-2.0049,-2.0048,-2.0046,-1.9981,-1.9981,-1.9981,0,0,0,0,0,0,0,0,0,0,0,0,0,0,0,0,0,0,0,0,0,0,0,0,0,0,0,0,0,0,0,0,0,0,0,0,0,0,0,0,0,0,0,0,0,0,0,0,0,0,0,0,0,0,0,0,0,0,0,0,0,0,0,0,0,0,0,0,0]}],[{"header":{"parameterUnit":"kt","parameterCategory":2,"dx":1,"dy":1,"la1":30.253999710083008,"la2":30.299108505249023,"lo1":-89.0895004272461,"lo2":-89.04439544677734,"nx":28,"ny":28,"refTime":"2022-10-04T21:00:00:Z","depth":0,"parameterNumber":2,"parameterNumberName":"V-component_of_WINDS"},"data":[-3.6566,-3.6581,-3.6528,-3.6521,-3.6472,-3.6458,-3.6435,-3.6401,-3.6359,-3.6337,-3.6314,-3.626,-3.6195,-3.6155,-3.6127,-3.6103,-3.6095,-3.6145,-3.6107,-3.5937,-3.5909,-3.5883,-3.5875,-3.6145,-3.6145,-3.6291,-3.6292,-3.6293,-3.6463,-3.6414,-3.6393,-3.6335,-3.6318,-3.624,-3.6187,-3.6177,-3.6165,-3.6113,-3.6085,-3.6059,-3.6031,-3.5945,-3.5908,-3.5915,-3.5874,-3.591,-3.5906,-3.5898,-3.5714,-3.5707,-3.5945,-3.5945,-3.5944,-3.5944,-3.5944,-3.5944,-3.6258,-3.6269,-3.6199,-3.6174,-3.6129,-3.6091,-3.6091,-3.6021,-3.5998,-3.595,-3.5885,-3.587,-3.5804,-3.5726,-3.5685,-3.5672,-3.5621,-3.564,-3.5644,-3.565,-3.5668,-3.5471,-3.5662,-3.5661,-3.566,-3.566,-3.5659,0,-3.609,-3.6043,-3.6015,-3.5973,-3.5951,-3.5911,-3.5864,-3.5862,-3.5735,-3.5721,-3.5695,-3.567,-3.5621,-3.5589,-3.5538,-3.5487,-3.5398,-3.5381,-3.5394,-3.5425,-3.5465,-3.5446,-3.5151,-3.5374,-3.5371,-3.5369,-3.5367,-3.5366,-3.5879,-3.5895,-3.5791,-3.578,-3.5738,-3.572,-3.5697,-3.5583,-3.5563,-3.5487,-3.5501,-3.5467,-3.5432,-3.5398,-3.5309,-3.5271,-3.5225,-3.5318,-3.5217,-3.5252,-3.5227,-3.5227,-3.5229,-3.5338,-3.5341,-3.5344,-3.5347,0,-3.5767,-3.5669,-3.5672,-3.5564,-3.5537,-3.556,-3.5467,-3.547,-3.5397,-3.5391,-3.5382,-3.5266,-3.5241,-3.5134,-3.5081,-3.5027,-3.5068,-3.5025,-3.5094,-3.5079,-3.5152,-3.5147,-3.5402,-3.543,-3.515,-3.5153,-3.5155,0,-3.5547,-3.557,-3.5421,-3.5428,-3.5452,-3.5332,-3.5359,-3.5296,-3.5231,-3.5225,-3.5105,-3.5102,-3.4964,-3.4946,-3.4865,-3.4879,-3.4867,-3.4826,-3.4803,-3.4835,-3.4841,-3.4819,-3.4805,-3.475,-3.4749,-3.4747,-3.4747,0,-3.5379,-3.5322,-3.5333,-3.5303,-3.5184,-3.5193,-3.5144,-3.5066,-3.5042,-3.4994,-3.4977,-3.493,-3.4903,-3.4869,-3.4764,-3.4701,-3.4777,-3.4667,-3.4734,-3.4738,-3.4752,-3.4752,-3.5009,-3.4745,-3.4745,-3.4744,-3.4744,0,-3.5181,-3.5134,-3.5164,-3.5062,-3.5051,-3.5056,-3.5,-3.498,-3.4906,-3.4854,-3.4814,-3.4717,-3.4716,-3.4618,-3.4616,-3.4564,-3.4546,-3.4505,-3.4508,-3.4497,-3.4387,-3.4546,-3.4803,-3.4825,-3.4497,-3.4495,-3.4493,0,-3.5019,-3.5017,-3.491,-3.4939,-3.4923,-3.4787,-3.4791,-3.4727,-3.4657,-3.4633,-3.4554,-3.4526,-3.4428,-3.4403,-3.4418,-3.4334,-3.4403,-3.4322,-3.429,-3.4291,-3.4315,-3.455,-3.4614,-3.476,-3.4465,-3.4468,-3.447,0,-3.4876,-3.4725,-3.4736,-3.4697,-3.4588,-3.4571,-3.4577,-3.452,-3.4511,-3.4448,-3.4449,-3.4405,-3.433,-3.4288,-3.4201,-3.4221,-3.4353,-3.4135,-3.4131,-3.418,-3.4439,-3.4502,-3.4527,-3.4291,-3.4294,-3.4296,-3.4447,0,-3.4604,-3.4586,-3.4613,-3.4523,-3.4492,-3.45,-3.4378,-3.4363,-3.4283,-3.4204,-3.4201,-3.4112,-3.4051,-3.4047,-3.3965,-3.4045,-3.4014,-3.3931,-3.382,-3.3976,-3.4023,-3.4042,-3.3763,-3.3759,-3.3755,-3.3752,0,0,-3.4472,-3.4441,-3.4316,-3.4312,-3.4278,-3.4129,-3.4149,-3.4098,-3.3996,-3.3976,-3.3915,-3.3838,-3.3766,-3.3773,-3.3812,-3.3786,-3.379,-3.3736,-3.3903,-3.3921,-3.3936,-3.3988,-3.401,-3.3746,-3.3745,-3.3744,-3.3743,0,-3.4344,-3.4275,-3.4295,-3.4237,-3.4144,-3.4057,-3.4064,-3.3943,-3.3892,-3.3884,-3.3758,-3.374,-3.3677,-3.3619,-3.3581,-3.3735,-3.3638,-3.3725,-3.3851,-3.3874,-3.3896,-3.3914,-3.3971,-3.3993,-3.3735,-3.3735,-3.3736,0,-3.4182,-3.4094,-3.4088,-3.3998,-3.3934,-3.3917,-3.3774,-3.376,-3.3746,-3.3575,-3.3568,-3.3501,-3.341,-3.3431,-3.3435,-3.3378,-3.3508,-3.3442,-3.3459,-3.3455,-3.3471,-3.3498,-3.3522,-3.3211,-3.321,-3.3209,0,0,-3.4088,-3.4067,-3.393,-3.3961,-3.393,-3.3799,-3.3775,-3.3689,-3.361,-3.3579,-3.3487,-3.3414,-3.3377,-3.3354,-3.3311,-3.3351,-3.3322,-3.3382,-3.3407,-3.3428,-3.3436,-3.3457,-3.3483,-3.3204,-3.3204,-3.3204,0,0,-3.4041,-3.3883,-3.3814,-3.3833,-3.3765,-3.3628,-3.3652,-3.3563,-3.351,-3.3494,-3.3345,-3.3318,-3.3334,-3.327,-3.3221,-3.3269,-3.3163,-3.3172,-3.3309,-3.3338,-3.3362,-3.3375,-3.3056,0,0,0,0,0,-3.3843,-3.3903,-3.3842,-3.3826,-3.3707,-3.3664,-3.3647,-3.3526,-3.3455,-3.3478,-3.3388,-3.3283,-3.3214,-3.3167,-3.3153,-3.3207,-3.3141,-3.3152,-3.3163,-3.3348,-3.338,-3.3407,0,0,0,0,0,0,-3.3836,-3.3817,-3.384,-3.3709,-3.3681,-3.366,-3.3514,-3.3482,-3.345,-3.3431,-3.3304,-3.3279,-3.3173,-3.3165,-3.3154,-3.3209,-3.3059,-3.3145,-3.3155,-3.3163,-3.3359,-3.3385,-3.3408,0,0,0,0,0,-3.383,-3.3814,-3.3654,-3.3707,-3.3682,-3.3536,-3.3511,-3.3483,-3.3455,-3.3312,-3.3283,-3.3366,-3.3178,-3.316,-3.3158,-3.3217,-3.3065,-3.3062,-3.3151,-3.3159,-3.3166,-3.3372,0,0,0,0,0,0,-3.3825,-3.3788,-3.3646,-3.3634,-3.3673,-3.3535,-3.3509,-3.3484,-3.3336,-3.3309,-3.3366,-3.3353,-3.3182,-3.3168,-3.3155,-3.3227,-3.3071,-3.3067,-3.3065,-3.3157,-3.3163,-3.3168,0,0,0,0,0,0,-3.3795,-3.3779,-3.364,-3.3604,-3.3586,-3.3534,-3.3511,-3.3489,-3.3336,-3.3398,-3.3382,-3.3362,-3.3201,-3.3174,-3.3163,-3.3133,-3.3075,-3.3071,-3.3069,-3.3067,-3.3162,-3.3167,0,0,0,0,0,0,-3.3786,-3.3772,-3.3606,-3.3593,-3.3577,-3.3434,-3.3512,-3.3395,-3.3308,-3.3407,-3.3296,-3.3291,-3.321,-3.3196,-3.3169,-3.3145,-3.3136,-3.3075,-3.3072,-3.3071,-3.307,0,0,0,0,0,0,0,-3.3779,-3.3903,-3.3717,-3.3584,-3.357,-3.3523,-3.352,-3.3517,-3.3307,-3.3302,-3.3298,-3.3293,-3.3094,-3.3091,-3.3087,-3.3155,0,0,-3.3075,-3.3073,0,0,0,0,0,0,0,0,-3.3906,-3.3904,-3.3717,-3.3715,-3.3712,-3.3523,-3.352,-3.3518,-3.3306,-3.3302,-3.3299,-3.3295,-3.3093,-3.309,-3.3087,0,0,0,0,0,0,0,0,0,0,0,0,0,0,0,-3.3717,-3.3715,0,-3.3523,-3.352,-3.3518,-3.3305,-3.3302,-3.3299,-3.3296,-3.3093,-3.309,-3.3088,0,0,0,0,0,0,0,0,0,0,0,0,0,0,0,0,0,0,0,0,0,0,0,0,0,0,0,0,0,0,0,0,0,0,0,0,0,0,0,0,0,0,0,0,0,0,0,0,0,0,0,0,0,0,0,0,0,0,0,0,0,0,0,0,0,0,0,0,0]}]]]